Location: Unspecified
(40.9447°N, 78.9903°W)
Time: 10:39:32
(UTC-04:00)

Resurs 1-4 Rocket - Pass Details

Date: 26 July 2021
Orbit: 799 x 815 km, 98.6° (Epoch: 23 September)

Event Time Altitude Azimuth Distance (km) Brightness Sun altitude
Rises 02:30:32 0° 17° (NNE) 3,342 6.6 -27.7°
Reaches altitude 10° 02:32:56 10° 22° (NNE) 2,404 5.6 -27.5°
Maximum altitude 02:38:11 58° 101° (E) 941 2.4 -27.2°
Enters shadow 02:38:24 57° 112° (ESE) 945 2.3 -27.2°
